[[{"header":{"parameterUnit":"m.s-1","parameterCategory":1,"la1":30.2991,"la2":30.254,"lo1":-89.0895,"lo2":-89.0444,"dy":0.0017,"dx":0.0017,"nx":28,"ny":28,"refTime":"2025-07-13T21:00:00:Z","depth":0,"parameterNumber":2,"parameterNumberName":"U-component_of_WINDS"},"data":[0,0,0,0,0,0,0,0,0,0,0,0,0,0,0,0,0,0,0,0,0,0,0,0,0,0,0,0,0,0,0,0,0,0,0,0,0,0,0,0,0,0,0,0,0,0,0,0,0,0,0,0,0,0,0,0,0,0,2.4866,2.4867,0,2.497,2.4972,2.4973,2.4946,2.4944,2.4942,2.494,2.5049,2.5053,2.5058,0,0,0,0,0,0,0,0,0,0,0,0,0,2.4646,2.465,2.4866,2.4867,2.4869,2.497,2.4972,2.4973,2.4946,2.4943,2.4941,2.4939,2.5047,2.5053,2.5059,0,0,0,0,0,0,0,0,0,0,0,0,0,2.4745,2.4652,2.4866,2.4867,2.4869,2.497,2.4972,2.4973,2.4947,2.4943,2.494,2.4937,2.5045,2.5052,2.5059,2.5166,0,0,2.5082,2.5085,0,0,0,0,0,0,0,0,2.474,2.4753,2.4866,2.4868,2.4869,2.4942,2.4934,2.5038,2.4947,2.4917,2.4939,2.4936,2.5016,2.5025,2.5052,2.5171,2.5176,2.5082,2.5087,2.509,2.5092,0,0,0,0,0,0,0,2.4733,2.4749,2.4907,2.4868,2.487,2.4864,2.4874,2.4954,2.4983,2.4919,2.4918,2.493,2.5016,2.5045,2.5054,2.5178,2.5082,2.5088,2.5093,2.5096,2.539,2.5393,0,0,0,0,0,0,2.4724,2.4743,2.4904,2.4911,2.4795,2.487,2.4882,2.4922,2.4982,2.4988,2.4933,2.4929,2.5034,2.5046,2.5058,2.5186,2.509,2.5096,2.5101,2.5386,2.5391,2.5394,0,0,0,0,0,0,2.472,2.4739,2.49,2.4826,2.4846,2.4877,2.4922,2.4925,2.4954,2.4992,2.4997,2.4957,2.5032,2.5048,2.5139,2.5189,2.51,2.5106,2.5382,2.5388,2.5392,2.5444,0,0,0,0,0,0,2.4714,2.4738,2.4778,2.4828,2.485,2.4979,2.4925,2.493,2.4966,2.4962,2.5015,2.5021,2.5031,2.5128,2.5146,2.5198,2.5112,2.5378,2.5385,2.5391,2.5438,2.545,2.5461,0,0,0,0,0,2.4706,2.4789,2.478,2.48,2.4901,2.4982,2.4995,2.5003,2.497,2.5011,2.5036,2.502,2.5181,2.5138,2.5158,2.5212,2.5375,2.5383,2.539,2.5433,2.5448,2.546,0,0,0,0,0,0,2.4745,2.4795,2.4786,2.4888,2.4931,2.4977,2.5029,2.5019,2.5073,2.5067,2.5075,2.5088,2.5181,2.5206,2.5157,2.5319,2.5273,2.5286,2.5299,2.5313,2.5325,2.5316,2.5118,0,0,0,0,0,2.4765,2.4826,2.4867,2.4953,2.4974,2.4998,2.5034,2.5036,2.5081,2.51,2.5131,2.5176,2.5237,2.5277,2.5335,2.5442,2.5453,2.5489,2.55,2.551,2.552,2.5578,2.5594,2.542,2.542,2.542,0,0,2.4808,2.4843,2.4881,2.4961,2.4995,2.5058,2.5014,2.5082,2.5129,2.511,2.5198,2.5223,2.5274,2.5373,2.5419,2.5397,2.5571,2.552,2.5527,2.5532,2.5587,2.5604,2.5618,2.5425,2.5424,2.5423,0,0,2.4918,2.4951,2.5025,2.506,2.5111,2.5126,2.5144,2.5193,2.5208,2.5296,2.5283,2.5339,2.5444,2.5481,2.5513,2.5637,2.5624,2.5656,2.5716,2.5772,2.5786,2.5798,2.5841,2.5857,2.5666,2.5667,2.5667,0,2.4965,2.5058,2.5065,2.5134,2.517,2.5156,2.5231,2.5265,2.5333,2.5358,2.5333,2.5463,2.5497,2.5604,2.5634,2.5662,2.5682,2.565,2.5783,2.5795,2.5807,2.5848,2.5865,2.567,2.567,2.5669,2.5669,0,2.5113,2.5178,2.5232,2.5297,2.5339,2.5411,2.543,2.5472,2.5471,2.5489,2.5579,2.5619,2.5684,2.571,2.5711,2.5818,2.5803,2.5781,2.5735,2.5827,2.5866,2.5882,2.5675,2.5674,2.5673,2.5672,0,0,2.5249,2.5317,2.5337,2.5366,2.5421,2.5472,2.5544,2.5607,2.5643,2.5691,2.5751,2.584,2.582,2.5856,2.5861,2.5911,2.6005,2.5882,2.5883,2.5903,2.6125,2.6141,2.6159,2.5998,2.6001,2.6003,2.6121,0,2.5363,2.5489,2.5497,2.5611,2.5671,2.5658,2.5721,2.5762,2.5781,2.5835,2.5857,2.5919,2.5888,2.591,2.5959,2.5983,2.605,2.5975,2.6054,2.6057,2.604,2.618,2.6197,2.6306,2.6136,2.6139,2.6141,0,2.5512,2.5563,2.5683,2.5729,2.5755,2.5811,2.587,2.5922,2.5969,2.5979,2.602,2.6018,2.6092,2.6045,2.6147,2.6096,2.6129,2.6146,2.6151,2.6157,2.6103,2.619,2.6341,2.6357,2.6165,2.6163,2.6161,0,2.5599,2.5698,2.5782,2.5807,2.5864,2.5904,2.5929,2.5973,2.601,2.6062,2.6086,2.6147,2.6179,2.6226,2.624,2.6205,2.6343,2.6296,2.6353,2.6353,2.6382,2.638,2.654,2.6405,2.6405,2.6405,2.6404,0,2.5724,2.5798,2.5821,2.5873,2.5955,2.5964,2.6045,2.6069,2.6107,2.6164,2.6157,2.621,2.6226,2.6282,2.6294,2.6377,2.6392,2.6403,2.6405,2.6403,2.6402,2.6424,2.6416,2.6409,2.6408,2.6407,2.6406,0,2.5834,2.5853,2.5943,2.599,2.6003,2.6061,2.6101,2.6151,2.6169,2.6241,2.6258,2.6287,2.6353,2.6371,2.6451,2.6459,2.6556,2.6552,2.654,2.6539,2.6595,2.6589,2.6774,2.6798,2.6649,2.665,2.6651,0,2.5912,2.5968,2.6021,2.6057,2.6084,2.6144,2.6182,2.6194,2.6234,2.6291,2.6334,2.6399,2.6451,2.6557,2.6585,2.6646,2.6643,2.6703,2.6652,2.6648,2.6642,2.6638,2.6644,2.6713,2.6714,2.6715,2.6717,0,2.6049,2.6056,2.611,2.6168,2.6213,2.626,2.6305,2.6335,2.6354,2.6399,2.6466,2.6506,2.6587,2.6651,2.6712,2.6739,2.6731,2.6733,2.6749,2.6747,2.6737,2.6742,2.6565,2.6728,2.6727,2.6726,2.6725,2.6725,2.6145,2.6194,2.6238,2.6299,2.6334,2.6376,2.6425,2.6449,2.6504,2.657,2.6574,2.6646,2.6692,2.6773,2.6803,2.686,2.6843,2.6866,2.6872,2.6878,2.6882,2.6729,2.6872,2.6872,2.6871,2.6871,2.6871,0,2.6281,2.6309,2.6365,2.6427,2.6475,2.6462,2.6511,2.6552,2.6616,2.6658,2.671,2.6786,2.6849,2.6882,2.6944,2.6983,2.6981,2.6999,2.6996,2.7002,2.6895,2.6874,2.7,2.7,2.7,2.7,2.7,2.7,2.6357,2.6439,2.6451,2.655,2.6577,2.6647,2.6676,2.6714,2.6748,2.6834,2.6885,2.6906,2.6946,2.701,2.7067,2.7075,2.7098,2.7118,2.7125,2.7023,2.701,2.6997,2.6978,2.7124,2.7124,2.7227,2.7228,2.7229]},{"header":{"parameterUnit":"m.s-1","parameterCategory":1,"la1":30.2991,"la2":30.254,"lo1":-89.0895,"lo2":-89.0444,"dy":0.0017,"dx":0.0017,"nx":28,"ny":28,"refTime":"2025-07-13T21:00:00:Z","depth":0,"parameterNumber":3,"parameterNumberName":"V-component_of_WINDS"},"data":[0,0,0,0,0,0,0,0,0,0,0,0,0,0,0,0,0,0,0,0,0,0,0,0,0,0,0,0,0,0,0,0,0,0,0,0,0,0,0,0,0,0,0,0,0,0,0,0,0,0,0,0,0,0,0,0,0,0,1.8229,1.8233,0,1.8536,1.854,1.8543,1.8638,1.8636,1.8635,1.8633,1.8942,1.8951,1.8961,0,0,0,0,0,0,0,0,0,0,0,0,0,1.7718,1.7727,1.8229,1.8233,1.8237,1.8536,1.854,1.8544,1.8638,1.8636,1.8634,1.8633,1.8939,1.895,1.8962,0,0,0,0,0,0,0,0,0,0,0,0,0,1.7974,1.773,1.8228,1.832,1.8331,1.8535,1.854,1.8545,1.8638,1.8636,1.8634,1.8632,1.8935,1.8949,1.8963,1.9097,0,0,1.9007,1.9014,0,0,0,0,0,0,0,0,1.7959,1.7993,1.8302,1.8314,1.8327,1.8547,1.8473,1.873,1.8639,1.8521,1.8633,1.8631,1.8812,1.8836,1.8899,1.9111,1.9125,1.9009,1.9017,1.9024,1.9028,0,0,0,0,0,0,0,1.7942,1.798,1.835,1.8307,1.8322,1.8344,1.8377,1.8522,1.8675,1.8532,1.8539,1.8575,1.8818,1.8885,1.8907,1.9129,1.9008,1.9021,1.903,1.9036,1.9467,1.947,0,0,0,0,0,0,1.7909,1.7965,1.8341,1.836,1.8134,1.8355,1.8393,1.8478,1.8674,1.8702,1.8576,1.8578,1.8861,1.889,1.8918,1.9088,1.9024,1.9037,1.9045,1.9465,1.9468,1.9471,0,0,0,0,0,0,1.7898,1.7942,1.8328,1.8164,1.8215,1.8366,1.8461,1.8485,1.8552,1.8708,1.8735,1.8616,1.886,1.8898,1.9052,1.91,1.9044,1.9057,1.9461,1.9466,1.947,1.9429,0,0,0,0,0,0,1.7883,1.7937,1.7991,1.8165,1.8224,1.8459,1.8464,1.8493,1.8577,1.8583,1.8753,1.8779,1.8862,1.903,1.9067,1.9119,1.9068,1.9458,1.9463,1.9468,1.9427,1.9431,1.9435,0,0,0,0,0,1.7864,1.7966,1.7993,1.8038,1.8294,1.8462,1.8495,1.859,1.8581,1.8635,1.8735,1.8773,1.9089,1.9045,1.9087,1.9144,1.9455,1.9462,1.9468,1.9425,1.943,1.9435,0,0,0,0,0,0,1.7791,1.799,1.8023,1.8184,1.8305,1.8477,1.8549,1.8593,1.8718,1.8718,1.8828,1.8866,1.9012,1.9094,1.9042,1.9284,1.9273,1.9288,1.9226,1.9233,1.9237,1.9215,1.908,0,0,0,0,0,1.7794,1.7915,1.8082,1.8208,1.8267,1.8397,1.8474,1.8537,1.8666,1.8718,1.8829,1.8952,1.9079,1.916,1.9285,1.9438,1.9477,1.9498,1.9502,1.9505,1.9517,1.9605,1.9616,1.9492,1.9492,1.9492,0,0,1.78,1.7924,1.7994,1.8196,1.8298,1.842,1.844,1.8568,1.8659,1.8737,1.8891,1.8976,1.912,1.9275,1.9349,1.9347,1.956,1.9513,1.9514,1.9525,1.9612,1.9624,1.9634,1.9496,1.9496,1.9495,0,0,1.7875,1.7981,1.8099,1.82,1.8355,1.8441,1.8468,1.8635,1.8695,1.8852,1.8913,1.9021,1.9238,1.9339,1.9418,1.9531,1.957,1.9568,1.9591,1.9675,1.9684,1.9694,1.9735,1.9748,1.9579,1.9579,1.9579,0,1.7864,1.8052,1.8152,1.8279,1.8366,1.8443,1.8562,1.8655,1.8841,1.8899,1.8895,1.9169,1.9271,1.9451,1.9479,1.954,1.9575,1.955,1.9675,1.9686,1.9696,1.9736,1.9751,1.9578,1.9578,1.9578,1.9578,0,1.803,1.816,1.8236,1.8416,1.8512,1.8633,1.8751,1.8835,1.8889,1.8974,1.9132,1.9258,1.9411,1.9457,1.951,1.9645,1.964,1.9654,1.9645,1.9705,1.9745,1.9761,1.9576,1.9576,1.9577,1.9577,0,0,1.8069,1.8304,1.8331,1.8414,1.859,1.8691,1.8815,1.8966,1.9037,1.9162,1.9269,1.945,1.9465,1.9555,1.9619,1.9693,1.9775,1.9699,1.9704,1.971,1.9932,1.9921,1.9938,1.9802,1.9806,1.9808,1.992,0,1.8167,1.8396,1.849,1.8673,1.8794,1.8869,1.8977,1.9096,1.9179,1.9292,1.9383,1.951,1.9519,1.9574,1.965,1.9749,1.9822,1.9742,1.9902,1.9907,1.9865,1.9959,1.9948,2.0047,1.9936,1.9939,1.9941,0,1.8313,1.8442,1.8638,1.8801,1.8855,1.8951,1.9097,1.9205,1.934,1.9395,1.9496,1.9557,1.9689,1.967,1.9853,1.9797,1.9867,1.9925,1.9932,1.9951,1.9928,1.9981,2.0082,2.0097,1.9967,1.9964,1.9963,0,1.8323,1.8545,1.8692,1.8761,1.8953,1.9019,1.9102,1.9235,1.932,1.9447,1.9504,1.9643,1.972,1.9825,1.9922,1.99,2.0096,2.0085,2.0145,2.0142,2.0184,2.018,2.0298,2.0227,2.0226,2.0226,2.0226,0,1.8424,1.8541,1.8699,1.8789,1.8923,1.9029,1.9157,1.9245,1.9363,1.9471,1.9542,1.9641,1.9762,1.9876,1.9952,2.0092,2.0125,2.0173,2.0192,2.0168,2.0162,2.0217,2.0212,2.023,2.0229,2.0228,2.0228,0,1.8458,1.8568,1.8734,1.8903,1.8948,1.9039,1.9183,1.9273,1.9359,1.9494,1.9531,1.9666,1.9804,1.9911,2.0089,2.014,2.0289,2.0308,2.0244,2.0254,2.0308,2.0302,2.0466,2.0493,2.0402,2.0402,2.0403,0,1.8516,1.8608,1.8788,1.8866,1.8949,1.9074,1.9162,1.9269,1.9357,1.9519,1.9589,1.9732,1.9853,2.0069,2.0182,2.0318,2.0343,2.0391,2.0364,2.0337,2.0345,2.0339,2.0349,2.0394,2.0395,2.0395,2.0395,0,1.8607,1.8658,1.8783,1.8927,1.9031,1.9149,1.9268,1.9328,1.9456,1.9551,1.9694,1.9788,1.9971,2.0112,2.0261,2.0344,2.0391,2.0403,2.0424,2.0401,2.036,2.0384,2.0254,2.0399,2.0399,2.0398,2.0398,2.0398,1.8656,1.8742,1.8883,1.902,1.9121,1.9232,1.9325,1.9423,1.9545,1.9705,1.976,1.9907,2.004,2.0245,2.0329,2.0445,2.0446,2.0477,2.0485,2.0491,2.0489,2.0341,2.0472,2.0472,2.0472,2.0472,2.0472,0,1.8753,1.8847,1.8972,1.9138,1.9246,1.9282,1.9416,1.9503,1.9633,1.9754,1.9872,2.0036,2.0173,2.0297,2.0439,2.0508,2.0533,2.0542,2.0539,2.0557,2.0479,2.0447,2.0519,2.0519,2.0519,2.0519,2.0519,2.0519,1.8815,1.8964,1.903,1.9229,1.9322,1.9469,1.9543,1.9645,1.9742,1.9923,2.0038,2.0119,2.0241,2.0393,2.052,2.0553,2.0602,2.0606,2.0644,2.0569,2.0562,2.0557,2.0527,2.0615,2.0615,2.0713,2.0714,2.0714]}]]